Location: La Pernelle
(49.6188°N, 1.2999°W)
Time: 04:47:55
(UTC+00:00)

NOSS 3-2 (A) - Pass Details

Date: 25 October 2021
Orbit: 771 x 1437 km, 63.4° (Epoch: 21 November)

Event Time Altitude Azimuth Distance (km) Brightness Sun altitude
Rises 20:59:38 0° 317° (NW) 3,910 7.5 -39.1°
Reaches altitude 10° 21:02:09 10° 316° (NW) 3,039 6.7 -39.5°
Enters shadow 21:07:18 51° 308° (NW) 1,523 4.6 -40.2°
